EHI
2 3 4 5 3 1 0 0 0 0 0 0 0 0 0 0 0 0 0 0 0 0 1 2 4 4 3 2 3 4 3 1 0 0 0 0 0 0 0 0 0 1 1 1 0 0 1 0 0
1 2 5 5 2 0 0 0 0 0 0 0 0 0 0 0 0 0 0 0 0 0 0 2 4 4 3 3 2 2 1 0 0 0 0 0 0 0 0 0 0 0 0 0 0 0 1 0 0
3 4 5 3 1 0 0 0 0 0 0 0 0 0 0 0 0 0 0 0 0 0 0 1 3 3 3 2 1 0 0 0 0 0 0 0 0 0 0 0 0 0 0 0 0 1 1 0 0
8 9 6 2 0 0 0 0 0 0 0 0 0 0 0 0 0 0 0 0 0 0 0 1 2 3 2 1 0 0 0 0 0 0 0 0 0 0 0 0 0 0 0 0 0 1 2 1 0
12 10 5 1 0 0 0 0 0 0 0 0 0 0 0 0 0 0 0 0 0 0 0 1 2 3 1 0 0 0 0 0 0 0 0 0 0 0 0 0 0 0 0 0 0 1 1 1 0
8 6 2 0 0 0 0 0 0 0 0 0 0 0 0 0 0 0 0 0 0 0 0 1 2 2 1 0 0 0 0 0 0 0 0 0 0 0 0 0 0 0 0 0 0 0 0 0 0
3 2 0 0 0 0 0 0 1 1 1 1 0 0 0 0 0 0 0 0 0 0 0 0 1 2 1 1 1 1 1 1 0 0 0 0 0 0 0 0 0 0 0 0 0 0 0 0 0
2 1 0 0 0 0 0 1 2 3 2 1 0 0 1 1 2 1 0 0 0 0 0 0 0 1 1 0 0 1 1 1 1 0 0 0 0 0 0 0 0 0 0 0 0 0 0 0 0
2 1 0 0 0 0 1 2 3 3 3 1 0 1 2 3 3 2 0 0 0 0 0 0 0 0 0 0 0 0 0 0 0 0 0 0 0 0 0 0 0 0 0 0 0 0 0 0 0
2 1 0 0 0 0 1 3 3 3 3 2 1 3 4 5 4 2 1 0 0 0 0 0 0 0 0 0 0 1 1 0 0 0 0 0 0 0 0 0 0 0 0 0 0 0 0 0 0
2 1 0 0 0 1 2 3 3 3 3 2 2 5 6 6 4 2 1 0 0 0 0 0 0 0 0 0 0 1 2 1 0 0 0 0 0 0 0 1 1 1 0 0 1 1 0 0 1
1 0 0 0 0 1 2 2 2 2 2 2 3 6 8 7 3 1 0 0 0 0 0 0 0 0 1 1 0 1 2 1 0 0 0 0 0 0 0 1 2 2 1 1 1 1 1 1 2
0 0 0 0 0 1 1 1 1 2 1 1 3 6 8 5 2 1 1 1 0 0 0 0 0 1 2 2 1 1 1 1 0 0 0 0 0 0 1 1 2 2 2 2 1 1 2 3 3
0 0 0 0 0 0 0 0 1 2 1 1 3 5 6 4 3 3 3 3 1 0 0 0 1 2 3 3 3 1 0 0 0 0 0 0 0 1 2 2 2 1 2 1 0 1 3 4 4
0 0 0 0 0 0 0 1 1 2 1 1 1 4 5 4 4 5 5 4 3 1 1 1 1 2 3 3 3 1 0 0 0 0 0 0 0 1 2 2 1 1 1 1 1 2 3 4 4
0 0 0 0 0 0 1 2 2 1 1 0 1 3 5 6 6 6 5 4 4 3 3 3 2 3 3 3 2 1 0 0 0 1 1 1 0 1 1 1 0 0 1 2 2 2 4 5 5
0 0 0 0 0 0 1 2 2 1 0 0 1 3 6 8 8 7 5 4 4 5 6 6 5 4 3 3 3 1 0 0 1 1 1 1 0 0 0 0 0 0 1 1 1 1 3 4 4
0 0 0 0 0 0 1 3 2 1 0 0 1 4 7 9 9 8 7 5 5 7 9 9 8 6 4 3 3 2 0 0 1 1 1 0 0 0 0 0 0 0 0 0 0 1 2 2 3
0 0 0 0 0 1 2 3 2 1 0 0 2 5 7 8 10 11 9 7 7 8 10 11 10 8 6 4 2 1 0 0 0 0 0 0 0 0 0 0 0 0 0 0 0 0 0 1 2
0 0 0 0 0 1 2 2 1 0 0 0 2 5 7 8 11 13 12 10 7 7 9 11 11 10 8 5 2 0 0 0 0 0 0 0 0 0 0 0 0 0 0 0 0 0 0 0 1
0 0 0 0 0 0 1 1 1 0 0 0 2 5 6 8 11 14 13 10 7 6 6 8 10 10 10 7 3 1 1 0 0 0 1 0 0 1 1 1 1 0 0 0 0 0 0 0 0
0 0 0 0 0 0 0 1 1 1 0 1 3 6 7 7 9 12 13 10 7 4 4 5 7 9 11 11 8 5 3 1 0 0 1 1 1 2 2 3 2 1 0 0 0 0 0 0 0
0 0 0 0 0 0 0 1 2 1 0 1 2 5 7 7 9 12 12 9 6 3 2 3 5 8 11 12 11 9 6 3 2 2 2 3 4 3 3 2 1 0 0 0 0 0 0 0 1
0 0 0 0 0 0 0 2 3 3 1 0 1 4 7 9 13 14 12 10 8 3 1 2 5 7 9 10 11 10 8 7 5 5 6 7 6 4 2 1 1 1 1 1 1 1 0 1 2
0 0 0 0 0 0 1 2 4 3 1 0 1 4 7 10 14 15 14 15 13 7 5 5 8 10 10 10 11 11 9 8 6 7 8 8 6 4 3 3 3 2 1 1 1 1 2 3 5
0 0 0 0 0 0 1 2 2 1 0 0 2 5 8 9 10 12 15 16 15 12 10 10 12 13 11 11 13 12 9 7 6 7 8 8 6 4 4 4 4 3 3 3 3 4 5 6 8
0 0 0 0 0 0 1 2 2 1 0 1 4 6 7 7 6 8 10 12 12 14 14 14 15 15 13 12 13 12 9 7 7 8 9 8 7 5 5 5 5 4 5 6 7 7 7 8 8
0 0 0 0 0 0 0 1 2 2 1 2 6 8 7 6 5 5 7 8 10 12 15 16 16 16 14 12 12 11 10 9 9 9 9 9 8 8 7 6 6 6 6 8 9 8 7 8 9
0 0 0 0 0 0 0 1 2 3 1 3 7 10 10 8 6 5 7 9 10 11 13 15 15 14 12 10 10 10 11 12 12 12 10 10 10 10 9 8 9 8 7 7 10 10 8 8 10
0 0 0 0 0 0 0 0 1 1 1 3 8 11 13 12 9 7 8 10 11 11 12 12 13 12 10 8 9 11 13 15 16 14 12 11 12 12 11 9 9 9 7 7 10 10 8 9 11
Wind_Speed
12 9 6 5 6 3 10 9 7 6 6 7 6 5 6 8 7 6 5 5 5 5 5 6 7 6 6 8 8 9 8 8 8 8 9 9 9 9 10 11 12 13 14 13 14 14 14 14 13
8 6 6 6 1 7 10 8 8 8 7 5 5 5 6 8 8 6 4 5 4 5 5 6 8 7 7 8 9 9 8 8 8 8 8 8 8 8 9 10 11 12 13 14 15 14 14 13 13
7 7 6 2 6 9 10 8 8 7 6 3 4 6 6 7 6 5 5 4 4 6 5 9 9 8 8 8 8 8 8 8 8 8 8 8 8 8 9 9 10 11 12 13 13 13 13 13 13
5 6 5 2 11 11 8 7 6 5 5 4 4 6 7 6 4 5 6 4 5 6 6 10 9 8 8 8 7 7 7 7 7 8 7 8 8 8 8 9 9 11 12 12 13 13 13 12 12
6 5 1 7 11 9 7 6 4 5 5 5 4 7 8 6 6 7 5 4 5 6 7 10 10 8 8 7 7 7 7 7 7 7 7 7 7 7 8 8 9 10 11 11 12 12 12 12 11
5 4 3 9 10 7 6 5 4 6 7 6 5 6 8 6 6 6 5 5 5 6 7 9 10 8 7 7 7 7 6 7 7 7 7 7 7 7 8 8 8 9 10 10 11 11 11 11 11
6 3 6 8 8 8 6 4 4 5 6 5 3 6 8 7 6 6 6 5 5 6 6 6 7 8 8 7 7 6 6 6 7 7 6 6 6 7 8 7 8 9 9 9 10 11 11 10 10
5 3 5 7 7 9 6 4 4 4 6 5 2 4 7 8 7 6 6 6 6 6 6 5 4 4 4 6 7 6 6 6 6 6 6 6 6 7 8 7 8 8 8 9 9 10 10 10 9
6 3 7 9 7 7 5 4 5 4 7 6 5 7 10 11 8 7 6 6 5 5 4 4 4 4 3 4 6 6 6 6 6 6 6 5 4 5 6 7 8 9 9 9 8 9 9 10 10
5 4 9 7 6 5 4 4 5 5 6 6 8 10 12 10 8 7 6 6 5 4 4 4 4 4 3 3 4 3 3 4 3 3 4 3 3 2 3 7 8 9 9 9 8 7 9 9 7
2 5 5 4 4 3 4 5 4 3 5 5 8 12 11 10 8 6 6 5 5 4 4 4 4 3 3 2 2 2 2 2 3 4 3 3 3 3 3 3 5 6 8 7 8 8 5 4 3
1 2 3 3 2 1 3 5 4 3 7 7 9 12 12 10 8 6 6 5 5 4 4 3 3 3 3 2 2 2 2 2 2 3 3 3 2 2 3 2 3 3 3 4 4 3 4 3 4
1 2 3 2 1 2 3 4 4 5 6 9 12 12 11 9 8 6 6 5 5 4 3 3 3 3 2 2 1 2 2 2 3 2 3 2 2 2 3 2 2 3 3 4 3 3 4 3 4
2 2 1 2 3 4 3 4 3 6 8 11 11 11 10 9 8 7 6 5 4 4 3 3 2 3 3 2 2 1 2 2 2 2 3 2 2 2 2 3 2 2 3 3 3 4 4 3 3
2 2 3 3 2 3 3 4 4 7 9 10 10 10 9 8 7 6 6 5 5 4 3 3 3 3 2 2 2 2 2 2 2 3 3 2 2 2 2 2 2 2 3 3 3 4 3 3 3
5 4 2 4 1 2 6 2 7 8 9 9 9 9 9 8 7 6 6 5 5 4 4 3 2 3 3 2 1 1 2 2 2 2 2 2 2 2 2 2 2 2 2 2 3 3 3 2 2
6 3 1 3 2 1 4 1 6 7 8 8 9 9 8 8 7 6 6 6 5 4 4 3 2 3 3 3 2 2 2 2 1 2 2 2 2 2 2 1 2 2 2 2 2 3 2 2 2
3 3 2 2 1 2 2 1 4 6 7 7 8 8 8 8 8 7 7 6 5 5 4 4 4 3 3 3 2 2 2 2 1 1 2 2 2 2 1 2 2 1 2 2 2 2 1 1 1
6 6 4 2 1 2 2 1 2 5 6 7 8 8 9 8 8 8 7 6 6 5 5 5 4 4 3 2 3 3 3 2 2 2 2 2 2 3 1 1 3 1 2 2 2 2 3 2 1
8 7 5 1 1 3 2 1 2 4 5 5 7 8 8 9 9 8 8 7 7 6 6 6 6 5 5 3 2 2 1 2 2 1 2 2 2 2 2 2 2 2 1 2 2 1 1 1 1
8 7 6 4 2 4 4 2 3 5 4 5 5 7 8 9 9 10 9 8 8 7 7 6 6 6 5 4 3 3 3 2 2 2 2 2 2 2 1 1 1 1 2 2 2 2 2 1 1
8 5 6 6 7 4 5 3 2 3 4 4 5 7 8 9 9 9 9 8 8 7 7 7 7 6 6 5 4 4 3 2 2 1 2 3 3 2 2 2 1 1 1 1 2 2 1 2 2
5 3 6 7 7 6 5 6 1 4 1 2 4 6 7 8 8 8 8 8 7 7 6 7 7 6 6 5 5 5 4 3 2 2 3 2 2 2 2 2 1 1 1 1 0 0 2 1 2
4 6 6 8 8 7 4 7 2 1 1 1 2 4 6 7 8 7 7 7 7 7 6 7 7 6 5 5 5 5 4 3 3 3 3 3 2 2 2 2 2 2 1 1 2 2 2 2 2
9 8 6 7 7 4 3 6 1 2 1 1 1 3 4 6 7 7 6 6 6 7 7 7 7 6 6 6 5 5 5 5 4 4 3 3 2 3 3 3 3 2 2 2 2 2 2 3 3
9 10 8 7 5 3 6 5 1 2 2 2 1 2 4 5 6 6 6 6 6 7 7 7 7 7 7 6 6 5 5 4 3 4 3 3 2 2 2 3 3 4 4 4 3 3 3 3 3
8 9 9 9 8 7 4 4 5 2 2 2 2 3 3 4 5 6 6 6 6 6 6 7 7 7 7 7 6 5 5 4 3 3 4 3 2 2 3 4 4 4 4 4 4 3 3 3 4
6 6 7 9 7 9 6 7 3 2 1 1 2 2 2 3 4 5 5 5 6 6 6 6 6 6 6 6 6 5 5 5 4 4 4 3 3 3 3 4 4 4 4 4 4 4 4 4 4
7 8 7 7 8 9 7 2 3 2 1 1 2 2 2 2 3 4 4 4 5 6 6 6 6 6 6 6 5 4 4 5 5 5 5 4 4 4 4 4 4 4 4 4 4 4 4 5 4
8 8 9 9 8 9 9 1 5 2 2 1 1 2 2 1 2 3 4 4 4 5 5 6 6 6 6 5 5 5 4 4 5 5 5 4 4 4 4 4 4 4 4 4 5 5 5 5 5
Wind_Direction
176 182 207 231 231 92 62 62 61 63 61 57 52 40 41 34 17 51 71 72 71 81 94 112 109 117 123 125 126 125 123 123 127 129 132 135 136 140 147 149 148 145 147 150 152 147 144 144 145
174 185 225 239 311 71 66 58 61 55 67 82 71 53 54 57 46 74 85 78 77 82 89 91 104 115 117 120 121 119 118 119 125 130 132 133 135 136 139 147 148 148 149 149 148 146 148 148 146
179 224 260 268 51 57 63 59 68 77 78 62 64 51 42 50 63 74 82 96 88 83 89 95 104 111 114 118 120 118 119 119 124 131 134 134 133 136 138 142 147 148 148 148 149 149 149 147 146
213 225 232 55 66 59 57 67 81 94 85 64 71 81 74 54 52 80 102 101 93 93 99 100 106 109 110 113 115 118 118 118 123 127 129 128 130 135 137 140 146 150 153 152 152 151 149 148 148
239 257 172 80 69 65 66 71 72 61 67 69 67 81 81 73 78 97 105 100 97 95 95 103 106 107 106 111 111 114 118 120 124 123 124 125 128 132 136 142 150 155 156 155 155 155 154 154 154
243 248 54 67 71 72 80 82 74 66 75 78 76 88 82 94 101 103 101 88 89 99 97 103 117 111 111 116 116 114 112 116 123 124 124 126 131 134 138 141 148 152 155 157 157 157 158 160 158
292 344 55 64 73 78 72 72 58 69 80 78 78 84 101 110 103 106 102 93 90 94 92 99 112 120 124 123 119 121 120 120 125 127 127 128 131 133 140 141 147 149 152 157 158 160 162 164 165
294 286 69 65 63 72 86 86 71 69 82 85 68 78 103 121 122 115 107 98 92 87 86 93 95 102 119 125 125 125 127 128 128 129 129 133 139 139 143 149 149 150 155 159 161 165 164 166 170
264 276 55 47 48 75 104 108 98 95 102 96 66 64 102 126 131 124 114 102 94 82 82 92 96 97 106 117 125 136 134 135 145 141 140 155 148 142 150 132 143 156 160 162 164 166 168 176 176
265 12 46 33 28 65 108 105 119 137 120 110 104 102 119 133 136 129 117 112 99 87 89 93 87 90 95 105 113 127 126 128 137 127 136 135 121 122 117 119 140 152 159 165 165 169 179 197 175
291 7 25 39 40 61 122 124 141 131 104 108 126 131 137 140 138 131 122 115 106 107 98 99 95 93 88 95 109 110 111 118 130 127 125 120 134 134 127 134 143 151 164 170 165 179 179 175 157
285 15 353 16 43 114 123 131 130 87 68 99 125 136 143 147 141 138 131 124 118 115 103 93 93 81 71 68 101 124 125 128 118 122 132 129 130 124 123 132 136 152 158 158 166 162 160 162 157
231 20 21 31 133 119 138 131 115 103 102 119 130 142 147 148 144 141 134 127 122 118 112 101 100 94 82 81 113 115 119 126 125 136 134 136 140 137 139 132 140 157 146 156 162 160 154 155 151
15 4 71 104 127 143 154 133 142 114 131 136 143 150 151 149 147 144 144 138 135 136 128 121 121 111 102 104 107 112 127 126 124 130 126 148 143 138 148 147 145 144 148 143 153 151 157 157 150
237 225 151 120 142 145 196 153 133 131 146 151 154 154 154 153 151 154 157 160 153 149 141 144 143 124 128 127 136 131 133 125 126 122 134 157 159 143 152 145 148 139 145 149 156 151 152 156 156
229 234 161 113 152 157 251 81 108 144 161 162 162 160 162 161 162 163 164 168 165 157 154 162 158 143 144 139 146 135 129 125 130 133 139 147 148 156 169 153 140 144 156 161 155 167 153 152 161
221 263 13 106 139 214 258 29 115 158 173 170 171 170 171 167 171 168 173 173 174 169 166 166 164 152 153 149 153 146 130 136 138 141 133 134 147 150 166 134 117 162 159 168 177 128 168 156 152
273 289 302 352 88 264 276 322 134 166 184 178 176 177 177 177 176 172 178 179 177 175 174 171 166 160 166 161 159 158 143 149 143 139 117 126 132 130 146 150 131 168 153 146 135 130 150 174 171
280 282 289 330 32 279 296 307 141 163 191 188 186 184 185 182 172 172 176 182 180 178 179 182 177 167 181 178 182 168 164 166 149 146 127 134 122 119 137 127 127 169 150 154 155 154 159 174 154
258 260 263 245 132 270 298 297 136 161 194 200 196 192 192 183 175 178 183 185 187 185 188 187 185 178 187 177 178 170 163 171 147 133 124 140 132 143 148 136 167 163 148 162 163 174 228 194 191
245 258 268 271 234 217 251 213 156 160 183 192 204 199 195 192 184 184 189 190 191 190 192 193 191 186 192 184 179 167 165 191 166 160 145 145 150 148 110 135 151 156 192 168 182 196 207 228 224
247 257 259 249 247 241 259 276 146 167 175 195 203 201 194 190 187 186 186 189 193 193 189 192 188 188 190 189 191 188 186 188 175 170 142 152 155 155 149 149 155 177 194 162 207 184 205 217 216
259 259 245 247 255 257 243 267 146 151 200 206 200 201 195 188 186 185 188 188 191 189 187 183 182 185 187 191 190 198 200 194 180 164 148 165 151 162 168 155 163 175 202 175 230 216 242 226 239
216 217 221 235 247 247 256 267 267 104 310 303 180 186 188 183 182 183 185 185 188 184 183 178 175 180 184 189 194 202 200 194 182 178 171 177 167 167 175 178 179 190 204 191 209 214 213 242 253
223 236 231 226 227 240 215 255 286 47 38 349 145 164 173 175 177 180 184 183 186 185 184 180 175 178 183 188 194 200 203 196 197 202 190 197 191 181 177 187 191 200 207 212 217 217 243 234 235
227 248 259 271 273 235 205 242 118 87 68 68 107 140 152 161 171 179 184 185 184 185 185 183 179 182 185 188 193 198 203 204 201 199 207 199 211 196 173 192 198 205 211 211 206 218 220 227 237
230 239 267 272 271 269 239 216 177 159 102 88 104 120 139 155 171 179 179 182 182 181 183 185 181 183 186 187 190 195 203 214 211 197 208 209 205 200 191 199 205 211 214 218 221 228 230 228 236
269 258 247 256 265 264 240 234 220 187 192 148 137 136 133 148 162 171 176 178 176 175 175 176 173 174 177 182 192 189 197 202 206 207 206 208 212 217 217 215 215 218 218 218 228 234 234 235 238
214 226 248 258 266 271 267 230 64 145 165 193 159 131 130 150 158 156 161 168 173 170 167 171 174 177 178 180 184 190 191 195 199 201 205 208 215 215 219 221 217 220 224 224 228 235 239 239 242
251 248 240 250 249 255 271 235 78 92 117 122 118 121 117 143 151 151 149 149 163 167 171 174 177 181 181 179 182 186 186 189 198 200 207 211 216 221 220 226 226 229 232 231 231 235 234 237 242